Location: Olomouc
(49.5830°N, 17.2500°E)
Time: 00:07:09
(UTC+02:00)

ISS - Visible Passes

Search period start: 06 May 2021 00:00
Search period end: 16 May 2021 00:00
Orbit: 418 x 421 km, 51.6° (Epoch: 05 May)

Date Brightness Start Highest point End Pass type
(mag) Time Alt. Az. Time Alt. Az. Time Alt. Az.
06 May -3.9 02:48:19 69° S 02:48:31 72° SSE 02:51:54 10° ENE visible
06 May -3.2 04:22:05 10° W 04:25:26 59° N 04:28:47 10° ENE visible
07 May -2.4 02:02:24 31° E 02:02:24 31° E 02:04:26 10° ENE visible
07 May -3.4 03:35:20 16° W 03:37:58 63° N 03:41:20 10° ENE visible
08 May -1.1 01:16:27 13° E 01:16:27 13° E 01:16:55 10° E visible
08 May -3.6 02:49:24 39° W 02:50:29 72° NNW 02:53:51 10° ENE visible
08 May -3.3 04:24:08 10° WNW 04:27:30 63° N 04:30:52 10° E visible
09 May -3.5 02:03:25 67° ENE 02:03:25 67° ENE 02:06:24 10° ENE visible
09 May -3.2 03:36:39 10° WNW 03:40:00 59° N 03:43:22 10° E visible
10 May -1.9 01:17:25 25° ENE 01:17:25 25° ENE 01:18:57 10° ENE visible
10 May -3.2 02:50:21 20° WNW 02:52:30 58° N 02:55:52 10° ENE visible
10 May -3.7 04:26:06 10° WNW 04:29:29 88° N 04:32:53 10° ESE visible
11 May -0.9 00:31:23 11° ENE 00:31:23 11° ENE 00:31:30 10° ENE visible
11 May -3.4 02:04:19 48° WNW 02:05:00 63° N 02:08:23 10° ENE visible
11 May -3.5 03:38:39 10° WNW 03:42:02 72° NNE 03:45:25 10° E visible
12 May -3.1 01:18:13 51° NE 01:18:13 51° NE 01:20:55 10° ENE visible
12 May -3.3 02:51:11 10° WNW 02:54:32 63° N 02:57:54 10° E visible
12 May -3.6 04:28:03 10° WNW 04:31:21 52° SSW 04:34:39 10° SE visible
13 May -1.8 00:32:03 23° ENE 00:32:03 23° ENE 00:33:27 10° ENE visible
13 May -3.2 02:04:58 21° WNW 02:07:02 59° N 02:10:23 10° E visible
13 May -3.9 03:40:35 10° WNW 03:43:57 72° SSW 03:47:19 10° ESE visible
13 May -1.1 23:45:40 12° ENE 23:45:40 12° ENE 23:45:59 10° ENE visible
14 May -3.2 01:18:34 39° WNW 01:19:32 58° N 01:22:52 10° ENE visible
14 May -3.8 02:53:07 10° WNW 02:56:31 88° NNE 02:59:53 10° ESE visible
14 May -1.8 21:17:44 10° SSE 21:18:59 12° SE 21:20:14 10° ESE visible
14 May -3.7 22:51:55 10° SW 22:55:12 53° SSE 22:58:30 10° ENE visible
15 May -3.3 00:28:40 10° W 00:32:01 62° N 00:35:23 10° ENE visible
15 May -3.6 02:05:39 10° WNW 02:09:02 72° NNE 02:12:25 10° E visible
15 May -3.2 03:42:35 10° W 03:45:44 36° SSW 03:48:51 10° SE visible
15 May -3.3 22:04:41 10° SW 22:07:49 37° SSE 22:10:58 10° E visible
15 May -3.6 23:41:09 10° W 23:44:31 71° NNW 23:47:54 10° ENE visible
